Time,TemperatureF,DewpointF,PressureIn,WindDirection,WindDirectionDegrees,WindSpeedMPH,WindSpeedGustMPH,Humidity,HourlyPrecipIn,Conditions,Clouds,dailyrainin,SoftwareType,DateUTC
2013-02-16 00:00:00,39.0,23.8,29.83,NNE,15,1.0,8.0,54,0.00,,,0.00,Weather View 32 v70,2013-02-16 05:00:00,
2013-02-16 00:01:00,38.8,23.6,29.83,NE,50,1.0,8.0,54,0.00,,,0.00,Weather View 32 v70,2013-02-16 05:01:00,
2013-02-16 00:06:00,39.2,23.8,29.83,NNE,26,2.0,8.0,54,0.00,,,0.00,Weather View 32 v70,2013-02-16 05:06:00,
2013-02-16 00:11:00,39.0,23.5,29.83,ENE,73,1.0,7.0,53,0.00,,,0.00,Weather View 32 v70,2013-02-16 05:11:00,
2013-02-16 00:16:00,38.8,23.1,29.80,NNE,33,1.0,7.0,53,0.00,,,0.00,Weather View 32 v70,2013-02-16 05:16:00,
2013-02-16 00:21:00,38.3,22.7,29.80,NNE,20,2.0,7.0,53,0.00,,,0.00,Weather View 32 v70,2013-02-16 05:21:00,
2013-02-16 00:23:00,38.1,22.6,29.83,North,6,2.0,7.0,53,0.00,,,0.00,Weather View 32 v70,2013-02-16 05:23:00,
2013-02-16 00:28:00,37.6,22.3,29.83,North,355,2.0,6.0,54,0.00,,,0.00,Weather View 32 v70,2013-02-16 05:28:00,
2013-02-16 00:33:00,37.6,21.7,29.83,SE,130,3.0,5.0,53,0.00,,,0.00,Weather View 32 v70,2013-02-16 05:33:00,
2013-02-16 00:38:00,37.9,22.7,29.83,NE,41,1.0,5.0,54,0.00,,,0.00,Weather View 32 v70,2013-02-16 05:38:00,
2013-02-16 00:43:00,38.1,22.8,29.83,East,88,1.0,3.0,54,0.00,,,0.00,Weather View 32 v70,2013-02-16 05:43:00,
2013-02-16 00:48:00,38.5,22.7,29.83,East,97,2.0,3.0,53,0.00,,,0.00,Weather View 32 v70,2013-02-16 05:48:00,
2013-02-16 00:53:00,38.1,23.0,29.83,East,94,3.0,4.0,54,0.00,,,0.00,Weather View 32 v70,2013-02-16 05:53:00,
2013-02-16 00:58:00,38.1,23.4,29.80,East,87,2.0,4.0,55,0.00,,,0.00,Weather View 32 v70,2013-02-16 05:58:00,
2013-02-16 01:03:00,37.2,22.2,29.80,NNW,330,1.0,4.0,54,0.00,,,0.00,Weather View 32 v70,2013-02-16 06:03:00,
2013-02-16 01:08:00,35.8,20.6,29.83,NNW,328,1.0,4.0,54,0.00,,,0.00,Weather View 32 v70,2013-02-16 06:08:00,
2013-02-16 01:13:00,36.3,21.7,29.80,East,88,1.0,4.0,55,0.00,,,0.00,Weather View 32 v70,2013-02-16 06:13:00,
2013-02-16 01:18:00,36.5,21.1,29.80,SE,142,1.0,4.0,53,0.00,,,0.00,Weather View 32 v70,2013-02-16 06:18:00,
2013-02-16 01:23:00,37.0,22.0,29.83,ESE,114,2.0,4.0,54,0.00,,,0.00,Weather View 32 v70,2013-02-16 06:23:00,
2013-02-16 01:28:00,37.6,22.2,29.80,East,85,2.0,4.0,54,0.00,,,0.00,Weather View 32 v70,2013-02-16 06:28:00,
2013-02-16 01:33:00,36.8,22.0,29.80,East,91,2.0,4.0,55,0.00,,,0.00,Weather View 32 v70,2013-02-16 06:33:00,
2013-02-16 01:38:00,37.0,22.4,29.83,NW,307,1.0,4.0,55,0.00,,,0.00,Weather View 32 v70,2013-02-16 06:38:00,
2013-02-16 01:45:00,35.4,20.1,29.83,NNW,328,2.0,4.0,53,0.00,,,0.00,Weather View 32 v70,2013-02-16 06:45:00,
2013-02-16 01:50:00,35.9,21.2,29.83,ENE,73,0.0,4.0,55,0.00,,,0.00,Weather View 32 v70,2013-02-16 06:50:00,
2013-02-16 02:00:00,37.7,22.1,29.86,East,94,1.0,4.0,53,0.00,,,0.00,Weather View 32 v70,2013-02-16 07:00:00,
2013-02-16 02:05:00,38.1,22.4,29.80,NNE,26,2.0,4.0,53,0.00,,,0.00,Weather View 32 v70,2013-02-16 07:05:00,
2013-02-16 02:10:00,38.5,22.7,29.83,East,86,0.0,4.0,53,0.00,,,0.00,Weather View 32 v70,2013-02-16 07:10:00,
2013-02-16 02:15:00,38.5,22.4,29.80,NE,56,2.0,4.0,52,0.00,,,0.00,Weather View 32 v70,2013-02-16 07:15:00,
2013-02-16 02:20:00,38.3,21.8,29.80,NNE,31,1.0,4.0,51,0.00,,,0.00,Weather View 32 v70,2013-02-16 07:20:00,
2013-02-16 02:25:00,37.9,21.3,29.83,WNW,299,1.0,4.0,51,0.00,,,0.00,Weather View 32 v70,2013-02-16 07:25:00,
2013-02-16 02:30:00,37.6,21.1,29.80,NNW,342,0.0,4.0,51,0.00,,,0.00,Weather View 32 v70,2013-02-16 07:30:00,
2013-02-16 02:35:00,37.7,21.1,29.83,East,85,2.0,3.0,51,0.00,,,0.00,Weather View 32 v70,2013-02-16 07:35:00,
2013-02-16 02:40:00,37.6,21.8,29.80,East,97,1.0,3.0,53,0.00,,,0.00,Weather View 32 v70,2013-02-16 07:40:00,
2013-02-16 02:45:00,37.6,21.8,29.80,NNE,29,1.0,3.0,53,0.00,,,0.00,Weather View 32 v70,2013-02-16 07:45:00,
2013-02-16 02:50:00,36.1,20.3,29.80,NNW,336,3.0,3.0,52,0.00,,,0.00,Weather View 32 v70,2013-02-16 07:50:00,
2013-02-16 02:55:00,36.5,21.1,29.80,NNE,23,4.0,5.0,53,0.00,,,0.00,Weather View 32 v70,2013-02-16 07:55:00,
2013-02-16 03:00:00,36.5,21.8,29.80,NNE,20,4.0,10.0,55,0.00,,,0.00,Weather View 32 v70,2013-02-16 08:00:00,
2013-02-16 03:05:00,36.3,21.7,29.80,NNW,346,7.0,11.0,55,0.00,,,0.00,Weather View 32 v70,2013-02-16 08:05:00,
2013-02-16 03:10:00,36.7,21.2,29.80,NNE,19,7.0,13.0,53,0.00,,,0.00,Weather View 32 v70,2013-02-16 08:10:00,
2013-02-16 03:15:00,36.7,20.3,29.80,NNW,343,2.0,13.0,51,0.00,,,0.00,Weather View 32 v70,2013-02-16 08:15:00,
2013-02-16 03:20:00,36.3,19.4,29.80,NNW,343,5.0,13.0,50,0.00,,,0.00,Weather View 32 v70,2013-02-16 08:20:00,
2013-02-16 03:25:00,35.9,18.9,29.80,NNW,348,9.0,13.0,50,0.00,,,0.00,Weather View 32 v70,2013-02-16 08:25:00,
2013-02-16 03:30:00,36.1,18.8,29.80,North,357,3.0,14.0,49,0.00,,,0.00,Weather View 32 v70,2013-02-16 08:30:00,
2013-02-16 03:35:00,35.6,17.3,29.80,North,349,7.0,16.0,47,0.00,,,0.00,Weather View 32 v70,2013-02-16 08:35:00,
2013-02-16 03:40:00,35.4,17.3,29.80,North,2,8.0,16.0,47,0.00,,,0.00,Weather View 32 v70,2013-02-16 08:40:00,
2013-02-16 03:45:00,35.6,18.0,29.80,NNE,26,1.0,17.0,48,0.00,,,0.00,Weather View 32 v70,2013-02-16 08:45:00,
2013-02-16 03:50:00,35.6,17.4,29.77,NNE,17,6.0,17.0,47,0.00,,,0.00,Weather View 32 v70,2013-02-16 08:50:00,
2013-02-16 03:55:00,35.9,17.5,29.80,NNE,29,8.0,17.0,47,0.00,,,0.00,Weather View 32 v70,2013-02-16 08:55:00,
2013-02-16 04:00:00,34.9,17.2,29.80,NNW,337,5.0,17.0,48,0.00,,,0.00,Weather View 32 v70,2013-02-16 09:00:00,
2013-02-16 04:05:00,35.0,17.7,29.80,NNE,17,5.0,17.0,49,0.00,,,0.00,Weather View 32 v70,2013-02-16 09:05:00,
2013-02-16 04:10:00,35.4,17.7,29.83,North,1,2.0,17.0,48,0.00,,,0.00,Weather View 32 v70,2013-02-16 09:10:00,
2013-02-16 04:15:00,35.0,17.4,29.80,North,350,5.0,17.0,48,0.00,,,0.00,Weather View 32 v70,2013-02-16 09:15:00,
2013-02-16 04:20:00,35.4,17.9,29.80,NE,34,4.0,17.0,49,0.00,,,0.00,Weather View 32 v70,2013-02-16 09:20:00,
2013-02-16 04:25:00,35.0,17.5,29.80,North,8,8.0,17.0,48,0.00,,,0.00,Weather View 32 v70,2013-02-16 09:25:00,
2013-02-16 04:30:00,34.3,17.3,29.80,North,356,6.0,17.0,49,0.00,,,0.00,Weather View 32 v70,2013-02-16 09:30:00,
2013-02-16 04:35:00,34.9,17.8,29.80,ENE,72,1.0,17.0,49,0.00,,,0.00,Weather View 32 v70,2013-02-16 09:35:00,
2013-02-16 04:40:00,34.1,17.1,29.80,NNW,340,9.0,17.0,49,0.00,,,0.00,Weather View 32 v70,2013-02-16 09:40:00,
2013-02-16 04:45:00,34.7,18.3,29.80,NW,306,3.0,16.0,51,0.00,,,0.00,Weather View 32 v70,2013-02-16 09:45:00,
2013-02-16 04:50:00,34.1,17.7,29.83,NW,326,9.0,16.0,51,0.00,,,0.00,Weather View 32 v70,2013-02-16 09:50:00,
2013-02-16 04:55:00,34.1,17.7,29.77,NNW,331,6.0,16.0,51,0.00,,,0.00,Weather View 32 v70,2013-02-16 09:55:00,
2013-02-16 05:00:00,34.5,17.8,29.83,North,352,8.0,14.0,50,0.00,,,0.00,Weather View 32 v70,2013-02-16 10:00:00,
2013-02-16 05:05:00,34.7,18.4,29.83,NNW,339,3.0,15.0,51,0.00,,,0.00,Weather View 32 v70,2013-02-16 10:05:00,
2013-02-16 05:10:00,34.3,17.8,29.83,North,355,5.0,15.0,51,0.00,,,0.00,Weather View 32 v70,2013-02-16 10:10:00,
2013-02-16 05:15:00,34.3,17.5,29.80,NNW,340,6.0,15.0,50,0.00,,,0.00,Weather View 32 v70,2013-02-16 10:15:00,
2013-02-16 05:20:00,34.1,17.7,29.83,NNW,331,4.0,15.0,51,0.00,,,0.00,Weather View 32 v70,2013-02-16 10:20:00,
2013-02-16 05:25:00,34.5,18.3,29.80,NNE,17,6.0,15.0,51,0.00,,,0.00,Weather View 32 v70,2013-02-16 10:25:00,
2013-02-16 05:30:00,34.9,18.6,29.83,NE,46,8.0,15.0,51,0.00,,,0.00,Weather View 32 v70,2013-02-16 10:30:00,
2013-02-16 05:35:00,33.8,17.6,29.80,NW,322,6.0,15.0,51,0.00,,,0.00,Weather View 32 v70,2013-02-16 10:35:00,
2013-02-16 05:40:00,34.0,18.3,29.83,NNW,335,5.0,15.0,52,0.00,,,0.00,Weather View 32 v70,2013-02-16 10:40:00,
2013-02-16 05:45:00,33.8,18.2,29.83,North,3,6.0,15.0,52,0.00,,,0.00,Weather View 32 v70,2013-02-16 10:45:00,
2013-02-16 05:50:00,33.6,18.3,29.83,NNE,17,5.0,15.0,53,0.00,,,0.00,Weather View 32 v70,2013-02-16 10:50:00,
2013-02-16 05:55:00,33.4,18.3,29.83,NNE,21,9.0,15.0,53,0.00,,,0.00,Weather View 32 v70,2013-02-16 10:55:00,
2013-02-16 06:00:00,34.0,18.8,29.83,ESE,107,2.0,15.0,53,0.00,,,0.00,Weather View 32 v70,2013-02-16 11:00:00,
2013-02-16 06:05:00,34.0,18.5,29.80,NNE,24,2.0,13.0,53,0.00,,,0.00,Weather View 32 v70,2013-02-16 11:05:00,
2013-02-16 06:10:00,34.1,18.7,29.80,NE,38,5.0,13.0,53,0.00,,,0.00,Weather View 32 v70,2013-02-16 11:10:00,
2013-02-16 06:15:00,33.8,18.5,29.80,NNE,14,4.0,13.0,53,0.00,,,0.00,Weather View 32 v70,2013-02-16 11:15:00,
2013-02-16 06:20:00,33.2,18.1,29.77,NNW,347,3.0,13.0,53,0.00,,,0.00,Weather View 32 v70,2013-02-16 11:20:00,
2013-02-16 06:25:00,33.8,18.8,29.80,North,351,2.0,13.0,54,0.00,,,0.00,Weather View 32 v70,2013-02-16 11:25:00,
2013-02-16 06:30:00,34.1,18.9,29.83,North,353,0.0,13.0,53,0.00,,,0.00,Weather View 32 v70,2013-02-16 11:30:00,
2013-02-16 06:35:00,34.3,19.0,29.80,NE,45,3.0,13.0,53,0.00,,,0.00,Weather View 32 v70,2013-02-16 11:35:00,
2013-02-16 06:40:00,33.8,18.2,29.83,North,0,2.0,13.0,53,0.00,,,0.00,Weather View 32 v70,2013-02-16 11:40:00,
2013-02-16 06:45:00,33.1,17.7,29.83,NNW,340,4.0,13.0,53,0.00,,,0.00,Weather View 32 v70,2013-02-16 11:45:00,
2013-02-16 06:50:00,33.4,18.2,29.83,NNW,333,2.0,13.0,53,0.00,,,0.00,Weather View 32 v70,2013-02-16 11:50:00,
2013-02-16 06:55:00,33.2,18.5,29.83,NNE,12,2.0,11.0,54,0.00,,,0.00,Weather View 32 v70,2013-02-16 11:55:00,
2013-02-16 07:00:00,33.4,18.8,29.86,ENE,70,3.0,11.0,55,0.00,,,0.00,Weather View 32 v70,2013-02-16 12:00:00,
2013-02-16 07:05:00,33.8,19.1,29.83,ESE,113,1.0,11.0,54,0.00,,,0.00,Weather View 32 v70,2013-02-16 12:05:00,
2013-02-16 07:10:00,34.0,19.0,29.83,NW,324,1.0,11.0,54,0.00,,,0.00,Weather View 32 v70,2013-02-16 12:10:00,
2013-02-16 07:15:00,33.6,18.8,29.83,North,10,2.0,8.0,54,0.00,,,0.00,Weather View 32 v70,2013-02-16 12:15:00,
2013-02-16 07:20:00,34.0,19.0,29.86,ENE,60,3.0,8.0,54,0.00,,,0.00,Weather View 32 v70,2013-02-16 12:20:00,
2013-02-16 07:25:00,34.3,19.1,29.83,North,3,2.0,8.0,53,0.00,,,0.00,Weather View 32 v70,2013-02-16 12:25:00,
2013-02-16 07:30:00,34.0,18.7,29.83,ENE,59,2.0,9.0,53,0.00,,,0.00,Weather View 32 v70,2013-02-16 12:30:00,
2013-02-16 07:35:00,33.6,18.3,29.83,NE,40,5.0,9.0,53,0.00,,,0.00,Weather View 32 v70,2013-02-16 12:35:00,
2013-02-16 07:40:00,34.1,18.9,29.83,ENE,57,3.0,9.0,53,0.00,,,0.00,Weather View 32 v70,2013-02-16 12:40:00,
2013-02-16 07:45:00,34.5,19.2,29.83,ENE,78,1.0,9.0,53,0.00,,,0.00,Weather View 32 v70,2013-02-16 12:45:00,
2013-02-16 07:50:00,34.7,19.2,29.86,East,81,1.0,9.0,53,0.00,,,0.00,Weather View 32 v70,2013-02-16 12:50:00,
2013-02-16 07:55:00,33.8,18.4,29.83,North,2,2.0,9.0,53,0.00,,,0.00,Weather View 32 v70,2013-02-16 12:55:00,
2013-02-16 08:00:00,34.1,19.0,29.83,North,3,3.0,9.0,53,0.00,,,0.00,Weather View 32 v70,2013-02-16 13:00:00,
2013-02-16 08:05:00,34.1,19.0,29.83,North,355,3.0,9.0,54,0.00,,,0.00,Weather View 32 v70,2013-02-16 13:05:00,
2013-02-16 08:10:00,34.5,19.4,29.83,ENE,59,4.0,9.0,54,0.00,,,0.00,Weather View 32 v70,2013-02-16 13:10:00,
2013-02-16 08:15:00,33.8,18.3,29.83,North,4,5.0,11.0,53,0.00,,,0.00,Weather View 32 v70,2013-02-16 13:15:00,
2013-02-16 08:20:00,34.7,19.1,29.83,North,359,1.0,11.0,53,0.00,,,0.00,Weather View 32 v70,2013-02-16 13:20:00,
2013-02-16 08:25:00,34.5,18.4,29.83,North,355,3.0,11.0,52,0.00,,,0.00,Weather View 32 v70,2013-02-16 13:25:00,
2013-02-16 08:30:00,34.7,18.6,29.83,NNW,338,3.0,11.0,51,0.00,,,0.00,Weather View 32 v70,2013-02-16 13:30:00,
2013-02-16 08:35:00,35.4,19.0,29.83,ENE,71,3.0,11.0,51,0.00,,,0.00,Weather View 32 v70,2013-02-16 13:35:00,
2013-02-16 08:40:00,36.1,19.5,29.80,ENE,71,3.0,11.0,51,0.00,,,0.00,Weather View 32 v70,2013-02-16 13:40:00,
2013-02-16 08:45:00,36.8,20.0,29.80,NNE,28,1.0,11.0,50,0.00,,,0.00,Weather View 32 v70,2013-02-16 13:45:00,
2013-02-16 08:50:00,37.2,19.0,29.80,ESE,103,3.0,11.0,47,0.00,,,0.00,Weather View 32 v70,2013-02-16 13:50:00,
2013-02-16 08:55:00,36.3,18.7,29.83,NNE,23,3.0,11.0,48,0.00,,,0.00,Weather View 32 v70,2013-02-16 13:55:00,
2013-02-16 09:00:00,37.4,19.1,29.83,ENE,57,1.0,11.0,47,0.00,,,0.00,Weather View 32 v70,2013-02-16 14:00:00,
2013-02-16 09:05:00,35.6,17.2,29.83,NNE,16,6.0,11.0,47,0.00,,,0.00,Weather View 32 v70,2013-02-16 14:05:00,
2013-02-16 09:10:00,35.6,17.6,29.83,NNW,344,6.0,11.0,48,0.00,,,0.00,Weather View 32 v70,2013-02-16 14:10:00,
2013-02-16 09:15:00,35.4,17.3,29.80,North,356,5.0,11.0,47,0.00,,,0.00,Weather View 32 v70,2013-02-16 14:15:00,
2013-02-16 09:20:00,36.1,18.2,29.80,NE,38,6.0,12.0,48,0.00,,,0.00,Weather View 32 v70,2013-02-16 14:20:00,
2013-02-16 09:25:00,35.9,18.1,29.80,North,359,4.0,12.0,48,0.00,,,0.00,Weather View 32 v70,2013-02-16 14:25:00,
2013-02-16 09:30:00,35.9,18.2,29.83,NE,47,4.0,12.0,48,0.00,,,0.00,Weather View 32 v70,2013-02-16 14:30:00,
2013-02-16 09:35:00,36.7,18.5,29.80,NNE,32,7.0,12.0,47,0.00,,,0.00,Weather View 32 v70,2013-02-16 14:35:00,
2013-02-16 09:40:00,35.8,17.3,29.80,NNE,18,5.0,12.0,47,0.00,,,0.00,Weather View 32 v70,2013-02-16 14:40:00,
2013-02-16 09:45:00,35.4,17.3,29.83,NNW,336,5.0,12.0,47,0.00,,,0.00,Weather View 32 v70,2013-02-16 14:45:00,
2013-02-16 09:50:00,37.4,18.9,29.83,ENE,71,2.0,12.0,47,0.00,,,0.00,Weather View 32 v70,2013-02-16 14:50:00,
2013-02-16 09:55:00,36.3,17.9,29.86,NE,34,5.0,12.0,47,0.00,,,0.00,Weather View 32 v70,2013-02-16 14:55:00,
2013-02-16 10:00:00,35.9,16.3,29.80,North,355,4.0,13.0,44,0.00,,,0.00,Weather View 32 v70,2013-02-16 15:00:00,
2013-02-16 10:05:00,36.1,16.8,29.80,North,357,5.0,13.0,45,0.00,,,0.00,Weather View 32 v70,2013-02-16 15:05:00,
2013-02-16 10:10:00,36.5,16.9,29.80,NNE,13,6.0,13.0,45,0.00,,,0.00,Weather View 32 v70,2013-02-16 15:10:00,
2013-02-16 10:15:00,37.7,17.8,29.80,ENE,59,4.0,13.0,44,0.00,,,0.00,Weather View 32 v70,2013-02-16 15:15:00,
2013-02-16 10:20:00,37.4,16.8,29.80,NE,38,11.0,13.0,43,0.00,,,0.00,Weather View 32 v70,2013-02-16 15:20:00,
2013-02-16 10:25:00,36.1,15.1,29.80,NNW,345,10.0,13.0,42,0.00,,,0.00,Weather View 32 v70,2013-02-16 15:25:00,
2013-02-16 10:30:00,36.5,15.3,29.80,NNE,13,8.0,13.0,42,0.00,,,0.00,Weather View 32 v70,2013-02-16 15:30:00,
2013-02-16 10:35:00,38.1,17.0,29.80,NE,42,8.0,13.0,42,0.00,,,0.00,Weather View 32 v70,2013-02-16 15:35:00,
2013-02-16 10:40:00,37.7,16.1,29.80,NNE,28,4.0,13.0,41,0.00,,,0.00,Weather View 32 v70,2013-02-16 15:40:00,
2013-02-16 10:45:00,36.8,15.5,29.80,NNE,17,7.0,14.0,41,0.00,,,0.00,Weather View 32 v70,2013-02-16 15:45:00,
2013-02-16 10:50:00,36.1,14.9,29.80,North,0,6.0,14.0,41,0.00,,,0.00,Weather View 32 v70,2013-02-16 15:50:00,
2013-02-16 10:55:00,37.6,16.6,29.80,NE,41,12.0,14.0,42,0.00,,,0.00,Weather View 32 v70,2013-02-16 15:55:00,
2013-02-16 11:00:00,38.6,17.2,29.80,NNE,17,3.0,14.0,42,0.00,,,0.00,Weather View 32 v70,2013-02-16 16:00:00,
2013-02-16 11:05:00,36.8,15.1,29.80,NNW,346,8.0,14.0,41,0.00,,,0.00,Weather View 32 v70,2013-02-16 16:05:00,
2013-02-16 11:10:00,35.9,14.9,29.80,NW,326,7.0,14.0,42,0.00,,,0.00,Weather View 32 v70,2013-02-16 16:10:00,
2013-02-16 11:15:00,38.8,17.7,29.80,ENE,66,3.0,14.0,42,0.00,,,0.00,Weather View 32 v70,2013-02-16 16:15:00,
2013-02-16 11:20:00,38.3,16.3,29.80,NE,43,2.0,14.0,40,0.00,,,0.00,Weather View 32 v70,2013-02-16 16:20:00,
2013-02-16 11:25:00,37.0,15.3,29.83,North,352,6.0,14.0,41,0.00,,,0.00,Weather View 32 v70,2013-02-16 16:25:00,
2013-02-16 11:30:00,37.7,16.0,29.80,North,359,6.0,14.0,41,0.00,,,0.00,Weather View 32 v70,2013-02-16 16:30:00,
2013-02-16 11:35:00,38.6,17.1,29.80,NE,36,8.0,15.0,41,0.00,,,0.00,Weather View 32 v70,2013-02-16 16:35:00,
2013-02-16 11:40:00,39.0,16.9,29.80,NNW,347,2.0,15.0,40,0.00,,,0.00,Weather View 32 v70,2013-02-16 16:40:00,
2013-02-16 11:45:00,38.5,15.9,29.77,NNE,25,4.0,15.0,40,0.00,,,0.00,Weather View 32 v70,2013-02-16 16:45:00,
2013-02-16 11:50:00,36.8,14.3,29.80,NW,315,9.0,15.0,39,0.00,,,0.00,Weather View 32 v70,2013-02-16 16:50:00,
2013-02-16 11:55:00,36.3,14.9,29.80,North,360,6.0,15.0,41,0.00,,,0.00,Weather View 32 v70,2013-02-16 16:55:00,
2013-02-16 12:00:00,36.7,16.0,29.80,North,349,5.0,15.0,43,0.00,,,0.00,Weather View 32 v70,2013-02-16 17:00:00,
2013-02-16 12:05:00,35.4,15.2,29.80,NNW,330,7.0,15.0,43,0.00,,,0.00,Weather View 32 v70,2013-02-16 17:05:00,
2013-02-16 12:10:00,36.5,15.7,29.80,NNW,347,4.0,15.0,42,0.00,,,0.00,Weather View 32 v70,2013-02-16 17:10:00,
2013-02-16 12:15:00,36.1,15.3,29.77,NNW,340,6.0,15.0,42,0.00,,,0.00,Weather View 32 v70,2013-02-16 17:15:00,
2013-02-16 12:20:00,36.3,15.9,29.77,North,3,4.0,15.0,43,0.00,,,0.00,Weather View 32 v70,2013-02-16 17:20:00,
2013-02-16 12:25:00,37.4,17.0,29.77,NE,40,4.0,15.0,43,0.00,,,0.00,Weather View 32 v70,2013-02-16 17:25:00,
2013-02-16 12:30:00,37.0,15.5,29.77,North,357,4.0,15.0,41,0.00,,,0.00,Weather View 32 v70,2013-02-16 17:30:00,
2013-02-16 12:35:00,37.2,15.5,29.77,North,360,6.0,13.0,41,0.00,,,0.00,Weather View 32 v70,2013-02-16 17:35:00,
2013-02-16 12:40:00,37.9,17.2,29.77,North,356,3.0,13.0,43,0.00,,,0.00,Weather View 32 v70,2013-02-16 17:40:00,
2013-02-16 12:45:00,36.5,16.6,29.77,NNW,338,5.0,13.0,44,0.00,,,0.00,Weather View 32 v70,2013-02-16 17:45:00,
2013-02-16 12:50:00,37.0,16.3,29.77,North,4,4.0,13.0,43,0.00,,,0.00,Weather View 32 v70,2013-02-16 17:50:00,
2013-02-16 12:55:00,37.6,17.6,29.77,NE,50,3.0,13.0,44,0.00,,,0.00,Weather View 32 v70,2013-02-16 17:55:00,
2013-02-16 13:00:00,35.8,16.9,29.77,NNW,329,5.0,13.0,46,0.00,,,0.00,Weather View 32 v70,2013-02-16 18:00:00,
2013-02-16 13:05:00,35.9,17.9,29.77,North,358,4.0,13.0,48,0.00,,,0.00,Weather View 32 v70,2013-02-16 18:05:00,
2013-02-16 13:10:00,36.8,18.7,29.77,NNW,343,3.0,13.0,48,0.00,,,0.00,Weather View 32 v70,2013-02-16 18:10:00,
2013-02-16 13:15:00,37.6,19.0,29.77,North,5,3.0,13.0,47,0.00,,,0.00,Weather View 32 v70,2013-02-16 18:15:00,
2013-02-16 13:20:00,36.5,17.9,29.77,North,3,4.0,13.0,47,0.00,,,0.00,Weather View 32 v70,2013-02-16 18:20:00,
2013-02-16 13:25:00,38.5,19.7,29.77,ENE,73,1.0,13.0,46,0.00,,,0.00,Weather View 32 v70,2013-02-16 18:25:00,
2013-02-16 13:30:00,37.0,18.5,29.80,NNE,18,4.0,12.0,47,0.00,,,0.00,Weather View 32 v70,2013-02-16 18:30:00,
2013-02-16 13:35:00,38.1,19.4,29.77,NE,34,4.0,12.0,47,0.00,,,0.00,Weather View 32 v70,2013-02-16 18:35:00,
2013-02-16 13:40:00,36.8,18.3,29.77,NNE,19,4.0,12.0,47,0.00,,,0.00,Weather View 32 v70,2013-02-16 18:40:00,
2013-02-16 13:45:00,36.8,18.6,29.77,North,2,4.0,12.0,47,0.00,,,0.00,Weather View 32 v70,2013-02-16 18:45:00,
2013-02-16 13:50:00,36.3,18.6,29.74,North,6,4.0,10.0,48,0.00,,,0.00,Weather View 32 v70,2013-02-16 18:50:00,
2013-02-16 13:55:00,35.0,17.8,29.74,NNW,337,6.0,10.0,49,0.00,,,0.00,Weather View 32 v70,2013-02-16 18:55:00,
2013-02-16 14:00:00,35.4,19.2,29.77,NNW,343,2.0,9.0,51,0.00,,,0.00,Weather View 32 v70,2013-02-16 19:00:00,
2013-02-16 14:05:00,35.9,19.7,29.77,NNE,20,4.0,9.0,51,0.00,,,0.00,Weather View 32 v70,2013-02-16 19:05:00,
2013-02-16 14:10:00,35.8,19.2,29.74,NNW,344,3.0,9.0,51,0.00,,,0.00,Weather View 32 v70,2013-02-16 19:10:00,
2013-02-16 14:15:00,35.2,19.0,29.74,NW,316,4.0,9.0,51,0.00,,,0.00,Weather View 32 v70,2013-02-16 19:15:00,
2013-02-16 14:20:00,34.1,17.7,29.74,NNW,335,9.0,10.0,51,0.00,,,0.00,Weather View 32 v70,2013-02-16 19:20:00,
2013-02-16 14:25:00,34.9,18.6,29.74,North,355,4.0,10.0,51,0.00,,,0.00,Weather View 32 v70,2013-02-16 19:25:00,
2013-02-16 14:30:00,34.7,18.9,29.74,North,11,4.0,10.0,52,0.00,,,0.00,Weather View 32 v70,2013-02-16 19:30:00,
2013-02-16 14:35:00,35.6,19.7,29.74,NNE,17,3.0,10.0,52,0.00,,,0.00,Weather View 32 v70,2013-02-16 19:35:00,
2013-02-16 14:40:00,35.6,19.4,29.74,NE,50,3.0,10.0,51,0.00,,,0.00,Weather View 32 v70,2013-02-16 19:40:00,
2013-02-16 14:45:00,35.6,19.0,29.74,NNE,26,4.0,10.0,51,0.00,,,0.00,Weather View 32 v70,2013-02-16 19:45:00,
2013-02-16 14:50:00,36.3,19.8,29.74,NE,38,4.0,10.0,51,0.00,,,0.00,Weather View 32 v70,2013-02-16 19:50:00,
2013-02-16 14:55:00,35.9,19.1,29.74,NE,34,2.0,10.0,50,0.00,,,0.00,Weather View 32 v70,2013-02-16 19:55:00,
2013-02-16 15:00:00,36.1,19.2,29.71,NNE,20,4.0,10.0,50,0.00,,,0.00,Weather View 32 v70,2013-02-16 20:00:00,
2013-02-16 15:05:00,35.2,17.5,29.74,North,351,5.0,10.0,48,0.00,,,0.00,Weather View 32 v70,2013-02-16 20:05:00,
2013-02-16 15:10:00,34.5,17.0,29.74,NNW,332,4.0,10.0,48,0.00,,,0.00,Weather View 32 v70,2013-02-16 20:10:00,
2013-02-16 15:15:00,35.8,18.6,29.74,NE,46,4.0,10.0,49,0.00,,,0.00,Weather View 32 v70,2013-02-16 20:15:00,
2013-02-16 15:20:00,34.1,16.8,29.74,NNW,329,8.0,11.0,49,0.00,,,0.00,Weather View 32 v70,2013-02-16 20:20:00,
2013-02-16 15:25:00,35.4,18.7,29.74,North,6,2.0,11.0,50,0.00,,,0.00,Weather View 32 v70,2013-02-16 20:25:00,
2013-02-16 15:30:00,35.8,18.9,29.74,NE,48,5.0,11.0,50,0.00,,,0.00,Weather View 32 v70,2013-02-16 20:30:00,
2013-02-16 15:35:00,36.1,18.9,29.74,ENE,75,2.0,11.0,49,0.00,,,0.00,Weather View 32 v70,2013-02-16 20:35:00,
2013-02-16 15:40:00,34.3,17.4,29.74,NNW,340,7.0,11.0,50,0.00,,,0.00,Weather View 32 v70,2013-02-16 20:40:00,
2013-02-16 15:45:00,35.2,18.7,29.77,NNE,22,4.0,11.0,51,0.00,,,0.00,Weather View 32 v70,2013-02-16 20:45:00,
2013-02-16 15:50:00,35.2,18.5,29.77,North,1,4.0,11.0,50,0.00,,,0.00,Weather View 32 v70,2013-02-16 20:50:00,
2013-02-16 15:55:00,35.2,18.0,29.74,North,1,5.0,11.0,49,0.00,,,0.00,Weather View 32 v70,2013-02-16 20:55:00,
2013-02-16 16:00:00,34.1,17.0,29.77,NNW,344,7.0,11.0,49,0.00,,,0.00,Weather View 32 v70,2013-02-16 21:00:00,
2013-02-16 16:05:00,35.2,18.5,29.77,NNE,17,5.0,11.0,50,0.00,,,0.00,Weather View 32 v70,2013-02-16 21:05:00,
2013-02-16 16:10:00,35.8,19.1,29.74,NE,39,5.0,11.0,50,0.00,,,0.00,Weather View 32 v70,2013-02-16 21:10:00,
2013-02-16 16:15:00,36.5,19.4,29.71,ENE,67,3.0,11.0,50,0.00,,,0.00,Weather View 32 v70,2013-02-16 21:15:00,
2013-02-16 16:20:00,35.9,18.4,29.71,East,94,2.0,11.0,49,0.00,,,0.00,Weather View 32 v70,2013-02-16 21:20:00,
2013-02-16 16:25:00,36.3,18.7,29.71,ENE,78,2.0,11.0,48,0.00,,,0.00,Weather View 32 v70,2013-02-16 21:25:00,
2013-02-16 16:30:00,36.1,18.0,29.71,North,10,1.0,11.0,47,0.00,,,0.00,Weather View 32 v70,2013-02-16 21:30:00,
2013-02-16 16:35:00,36.3,18.2,29.71,NNE,30,2.0,11.0,48,0.00,,,0.00,Weather View 32 v70,2013-02-16 21:35:00,
2013-02-16 16:40:00,36.1,17.6,29.71,NNE,25,2.0,11.0,47,0.00,,,0.00,Weather View 32 v70,2013-02-16 21:40:00,
2013-02-16 16:45:00,35.8,17.4,29.71,NNE,19,2.0,11.0,47,0.00,,,0.00,Weather View 32 v70,2013-02-16 21:45:00,
2013-02-16 16:50:00,35.8,17.7,29.71,North,11,2.0,11.0,47,0.00,,,0.00,Weather View 32 v70,2013-02-16 21:50:00,
2013-02-16 16:55:00,36.1,17.9,29.71,NE,54,1.0,11.0,47,0.00,,,0.00,Weather View 32 v70,2013-02-16 21:55:00,
2013-02-16 17:00:00,36.5,18.0,29.71,NE,47,1.0,8.0,47,0.00,,,0.00,Weather View 32 v70,2013-02-16 22:00:00,
2013-02-16 17:05:00,36.8,18.3,29.71,ENE,73,1.0,7.0,47,0.00,,,0.00,Weather View 32 v70,2013-02-16 22:05:00,
2013-02-16 17:10:00,36.5,17.1,29.71,ESE,117,0.0,7.0,45,0.00,,,0.00,Weather View 32 v70,2013-02-16 22:10:00,
2013-02-16 17:15:00,36.8,17.6,29.74,ESE,108,1.0,7.0,45,0.00,,,0.00,Weather View 32 v70,2013-02-16 22:15:00,
2013-02-16 17:20:00,37.4,17.7,29.68,NNE,19,1.0,6.0,45,0.00,,,0.00,Weather View 32 v70,2013-02-16 22:20:00,
2013-02-16 17:25:00,37.4,17.1,29.71,NE,49,1.0,6.0,43,0.00,,,0.00,Weather View 32 v70,2013-02-16 22:25:00,
2013-02-16 17:30:00,37.6,17.3,29.71,ENE,73,1.0,6.0,43,0.00,,,0.00,Weather View 32 v70,2013-02-16 22:30:00,
2013-02-16 17:35:00,37.7,16.9,29.71,East,90,1.0,6.0,42,0.00,,,0.00,Weather View 32 v70,2013-02-16 22:35:00,
2013-02-16 17:40:00,37.9,17.2,29.71,NE,52,2.0,6.0,43,0.00,,,0.00,Weather View 32 v70,2013-02-16 22:40:00,
2013-02-16 17:45:00,37.9,16.8,29.71,East,85,1.0,4.0,42,0.00,,,0.00,Weather View 32 v70,2013-02-16 22:45:00,
2013-02-16 17:50:00,37.2,15.8,29.71,South,191,0.0,3.0,41,0.00,,,0.00,Weather View 32 v70,2013-02-16 22:50:00,
2013-02-16 17:55:00,36.3,14.4,29.71,ENE,76,7.0,7.0,40,0.00,,,0.00,Weather View 32 v70,2013-02-16 22:55:00,
2013-02-16 18:00:00,36.8,14.2,29.71,NE,38,6.0,10.0,39,0.00,,,0.00,Weather View 32 v70,2013-02-16 23:00:00,
2013-02-16 18:05:00,36.8,14.1,29.71,ENE,57,3.0,10.0,39,0.00,,,0.00,Weather View 32 v70,2013-02-16 23:05:00,
2013-02-16 18:10:00,36.7,13.5,29.68,ENE,62,3.0,10.0,38,0.00,,,0.00,Weather View 32 v70,2013-02-16 23:10:00,
2013-02-16 18:15:00,35.4,12.5,29.71,NNW,347,4.0,10.0,38,0.00,,,0.00,Weather View 32 v70,2013-02-16 23:15:00,
2013-02-16 18:20:00,35.4,12.7,29.71,North,5,4.0,11.0,39,0.00,,,0.00,Weather View 32 v70,2013-02-16 23:20:00,
2013-02-16 18:25:00,35.9,13.3,29.74,East,99,2.0,11.0,39,0.00,,,0.00,Weather View 32 v70,2013-02-16 23:25:00,
2013-02-16 18:30:00,36.1,13.3,29.71,ENE,66,4.0,11.0,39,0.00,,,0.00,Weather View 32 v70,2013-02-16 23:30:00,
2013-02-16 18:35:00,36.5,13.3,29.71,NE,42,3.0,11.0,38,0.00,,,0.00,Weather View 32 v70,2013-02-16 23:35:00,
2013-02-16 18:40:00,36.5,13.3,29.74,NE,42,2.0,11.0,38,0.00,,,0.00,Weather View 32 v70,2013-02-16 23:40:00,
2013-02-16 18:45:00,36.1,12.5,29.74,North,7,5.0,11.0,37,0.00,,,0.00,Weather View 32 v70,2013-02-16 23:45:00,
2013-02-16 18:50:00,36.3,12.6,29.71,NNE,16,4.0,11.0,37,0.00,,,0.00,Weather View 32 v70,2013-02-16 23:50:00,
2013-02-16 18:55:00,36.7,12.1,29.71,NE,46,4.0,11.0,36,0.00,,,0.00,Weather View 32 v70,2013-02-16 23:55:00,
2013-02-16 19:00:00,36.8,11.8,29.71,NE,39,6.0,11.0,35,0.00,,,0.00,Weather View 32 v70,2013-02-17 00:00:00,
2013-02-16 19:05:00,36.5,11.3,29.71,ENE,78,1.0,11.0,35,0.00,,,0.00,Weather View 32 v70,2013-02-17 00:05:00,
2013-02-16 19:10:00,36.8,11.5,29.68,NE,56,2.0,11.0,35,0.00,,,0.00,Weather View 32 v70,2013-02-17 00:10:00,
2013-02-16 19:15:00,37.0,11.2,29.71,ENE,62,2.0,11.0,34,0.00,,,0.00,Weather View 32 v70,2013-02-17 00:15:00,
2013-02-16 19:20:00,37.2,11.3,29.68,NE,51,4.0,11.0,34,0.00,,,0.00,Weather View 32 v70,2013-02-17 00:20:00,
2013-02-16 19:25:00,36.5,10.4,29.71,NNE,28,2.0,11.0,34,0.00,,,0.00,Weather View 32 v70,2013-02-17 00:25:00,
2013-02-16 19:30:00,36.5,10.4,29.68,NE,42,4.0,11.0,34,0.00,,,0.00,Weather View 32 v70,2013-02-17 00:30:00,
2013-02-16 19:35:00,36.5,10.9,29.68,NE,52,3.0,11.0,34,0.00,,,0.00,Weather View 32 v70,2013-02-17 00:35:00,
2013-02-16 19:40:00,36.1,10.8,29.68,NNE,21,2.0,11.0,35,0.00,,,0.00,Weather View 32 v70,2013-02-17 00:40:00,
2013-02-16 19:45:00,35.6,10.1,29.68,ENE,73,1.0,11.0,34,0.00,,,0.00,Weather View 32 v70,2013-02-17 00:45:00,
2013-02-16 19:50:00,35.2,8.1,29.68,North,351,3.0,11.0,32,0.00,,,0.00,Weather View 32 v70,2013-02-17 00:50:00,
2013-02-16 19:55:00,35.2,7.4,29.68,North,8,4.0,10.0,31,0.00,,,0.00,Weather View 32 v70,2013-02-17 00:55:00,
2013-02-16 20:00:00,35.4,7.7,29.71,ENE,70,2.0,10.0,31,0.00,,,0.00,Weather View 32 v70,2013-02-17 01:00:00,
2013-02-16 20:05:00,35.0,6.0,29.68,NNW,339,5.0,10.0,29,0.00,,,0.00,Weather View 32 v70,2013-02-17 01:05:00,
2013-02-16 20:10:00,35.2,6.7,29.68,NW,319,1.0,10.0,30,0.00,,,0.00,Weather View 32 v70,2013-02-17 01:10:00,
2013-02-16 20:16:00,34.9,5.8,29.68,NW,325,4.0,10.0,29,0.00,,,0.00,Weather View 32 v70,2013-02-17 01:16:00,
2013-02-16 20:21:00,35.2,6.5,29.65,NE,50,4.0,11.0,30,0.00,,,0.00,Weather View 32 v70,2013-02-17 01:21:00,
2013-02-16 20:26:00,35.2,6.0,29.68,North,2,5.0,11.0,29,0.00,,,0.00,Weather View 32 v70,2013-02-17 01:26:00,
2013-02-16 20:31:00,34.5,5.2,29.68,NNW,329,3.0,11.0,29,0.00,,,0.00,Weather View 32 v70,2013-02-17 01:31:00,
2013-02-16 20:36:00,34.5,5.6,29.68,North,351,6.0,11.0,29,0.00,,,0.00,Weather View 32 v70,2013-02-17 01:36:00,
2013-02-16 20:41:00,34.1,6.3,29.68,NNW,330,6.0,11.0,31,0.00,,,0.00,Weather View 32 v70,2013-02-17 01:41:00,
2013-02-16 20:46:00,34.7,7.6,29.65,NNE,27,5.0,16.0,32,0.00,,,0.00,Weather View 32 v70,2013-02-17 01:46:00,
2013-02-16 20:51:00,34.7,6.7,29.68,North,4,3.0,16.0,31,0.00,,,0.00,Weather View 32 v70,2013-02-17 01:51:00,
2013-02-16 20:56:00,35.2,7.6,29.68,NE,54,3.0,16.0,31,0.00,,,0.00,Weather View 32 v70,2013-02-17 01:56:00,
2013-02-16 21:01:00,34.1,7.9,29.71,NNE,22,9.0,16.0,33,0.00,,,0.00,Weather View 32 v70,2013-02-17 02:01:00,
2013-02-16 21:06:00,34.0,9.5,29.68,North,356,6.0,16.0,36,0.00,,,0.00,Weather View 32 v70,2013-02-17 02:06:00,
2013-02-16 21:11:00,34.0,10.0,29.68,NNE,33,6.0,16.0,36,0.00,,,0.00,Weather View 32 v70,2013-02-17 02:11:00,
2013-02-16 21:16:00,34.1,10.4,29.68,NE,35,3.0,16.0,37,0.00,,,0.00,Weather View 32 v70,2013-02-17 02:16:00,
2013-02-16 21:21:00,33.1,10.1,29.68,North,349,9.0,16.0,38,0.00,,,0.00,Weather View 32 v70,2013-02-17 02:21:00,
2013-02-16 21:26:00,32.9,11.5,29.68,NNE,33,11.0,16.0,41,0.00,,,0.00,Weather View 32 v70,2013-02-17 02:26:00,
2013-02-16 21:31:00,33.4,12.3,29.68,ENE,65,2.0,16.0,41,0.00,,,0.00,Weather View 32 v70,2013-02-17 02:31:00,
2013-02-16 21:36:00,32.7,12.0,29.68,NNE,33,5.0,16.0,42,0.00,,,0.00,Weather View 32 v70,2013-02-17 02:36:00,
2013-02-16 21:41:00,32.9,12.5,29.68,NNE,18,4.0,16.0,42,0.00,,,0.00,Weather View 32 v70,2013-02-17 02:41:00,
2013-02-16 21:46:00,32.9,12.7,29.68,ENE,66,3.0,16.0,43,0.00,,,0.00,Weather View 32 v70,2013-02-17 02:46:00,
2013-02-16 21:51:00,33.2,12.6,29.65,ENE,58,3.0,16.0,42,0.00,,,0.00,Weather View 32 v70,2013-02-17 02:51:00,
2013-02-16 21:56:00,32.9,11.7,29.65,NE,37,8.0,16.0,41,0.00,,,0.00,Weather View 32 v70,2013-02-17 02:56:00,
2013-02-16 22:01:00,32.9,11.6,29.65,ENE,72,1.0,14.0,41,0.00,,,0.00,Weather View 32 v70,2013-02-17 03:01:00,
2013-02-16 22:07:00,32.5,10.6,29.65,NNW,327,2.0,14.0,40,0.00,,,0.00,Weather View 32 v70,2013-02-17 03:07:00,
2013-02-16 22:12:00,33.2,10.8,29.65,ENE,60,3.0,14.0,39,0.00,,,0.00,Weather View 32 v70,2013-02-17 03:12:00,
2013-02-16 22:17:00,32.3,9.1,29.65,North,351,8.0,15.0,37,0.00,,,0.00,Weather View 32 v70,2013-02-17 03:17:00,
2013-02-16 22:22:00,32.9,10.0,29.65,ENE,70,2.0,15.0,38,0.00,,,0.00,Weather View 32 v70,2013-02-17 03:22:00,
2013-02-16 22:27:00,33.2,9.5,29.65,NE,43,6.0,15.0,37,0.00,,,0.00,Weather View 32 v70,2013-02-17 03:27:00,
2013-02-16 22:32:00,32.5,8.8,29.65,NNE,13,11.0,15.0,36,0.00,,,0.00,Weather View 32 v70,2013-02-17 03:32:00,
2013-02-16 22:37:00,32.9,9.4,29.65,East,82,3.0,15.0,37,0.00,,,0.00,Weather View 32 v70,2013-02-17 03:37:00,
2013-02-16 22:42:00,32.3,8.5,29.62,NNE,13,7.0,15.0,36,0.00,,,0.00,Weather View 32 v70,2013-02-17 03:42:00,
2013-02-16 22:47:00,32.5,9.0,29.62,North,7,4.0,15.0,37,0.00,,,0.00,Weather View 32 v70,2013-02-17 03:47:00,
2013-02-16 22:52:00,32.3,9.1,29.62,SSW,201,1.0,15.0,37,0.00,,,0.00,Weather View 32 v70,2013-02-17 03:52:00,
2013-02-16 22:57:00,32.0,8.7,29.62,NNW,347,8.0,15.0,37,0.00,,,0.00,Weather View 32 v70,2013-02-17 03:57:00,
2013-02-16 23:02:00,32.3,9.7,29.62,ENE,59,3.0,15.0,38,0.00,,,0.00,Weather View 32 v70,2013-02-17 04:02:00,
2013-02-16 23:07:00,31.4,8.8,29.59,North,356,8.0,15.0,38,0.00,,,0.00,Weather View 32 v70,2013-02-17 04:07:00,
2013-02-16 23:12:00,31.3,9.3,29.62,NE,56,5.0,17.0,39,0.00,,,0.00,Weather View 32 v70,2013-02-17 04:12:00,
2013-02-16 23:17:00,31.3,9.6,29.62,North,4,4.0,17.0,40,0.00,,,0.00,Weather View 32 v70,2013-02-17 04:17:00,
2013-02-16 23:22:00,31.3,9.6,29.62,NE,45,6.0,17.0,40,0.00,,,0.00,Weather View 32 v70,2013-02-17 04:22:00,
2013-02-16 23:27:00,30.5,9.5,29.62,North,349,6.0,17.0,41,0.00,,,0.00,Weather View 32 v70,2013-02-17 04:27:00,
2013-02-16 23:32:00,30.2,9.9,29.59,NNW,336,6.0,17.0,42,0.00,,,0.00,Weather View 32 v70,2013-02-17 04:32:00,
2013-02-16 23:37:00,30.5,11.0,29.59,NNE,31,2.0,17.0,44,0.00,,,0.00,Weather View 32 v70,2013-02-17 04:37:00,
2013-02-16 23:42:00,29.8,10.5,29.59,NNE,20,4.0,17.0,44,0.00,,,0.00,Weather View 32 v70,2013-02-17 04:42:00,
2013-02-16 23:47:00,30.4,11.8,29.59,ENE,76,5.0,17.0,46,0.00,,,0.00,Weather View 32 v70,2013-02-17 04:47:00,
2013-02-16 23:52:00,30.0,11.4,29.59,NNE,15,4.0,17.0,45,0.00,,,0.00,Weather View 32 v70,2013-02-17 04:52:00,
2013-02-16 23:57:00,30.2,11.9,29.59,ENE,74,5.0,17.0,46,0.00,,,0.00,Weather View 32 v70,2013-02-17 04:57:00,